Regional Weather Roundup
Issued by NWS

Home | Current Version | Previous Version | Text Only | Print | Product List | Glossary Off
Versions: 1 2 3 4 5 6 7 8 9 10 11 12 13 14 15 16 17 18 19 20 21 22 23 24 25 26 27 28 29 30 31 32 33 34 35 36 37 38 39 40 41 42 43 44 45 46 47 48 49 50

000
ASUS45 KTFX 271104
RWRMT
MONTANA HOURLY WEATHER ROUNDUP
NATIONAL WEATHER SERVICE GREAT FALLS MT
404 AM MST THU NOV 27 2014

NOTE: "FAIR" INDICATES FEW OR NO CLOUDS BELOW 12000 FEET WITH NO
SIGNIFICANT WEATHER AND/OR OBSTRUCTIONS TO VISIBILITY.

* THESE STATIONS ARE NOT UNDER NWS QUALITY CONTROL. THEY DO NOT
   REPORT WEATHER SUCH AS PRECIPITATION OR FOG.

MTZ001>007-043-271200-
WEST OF THE DIVIDE
CITY           SKY/WX    TMP DP  RH WIND       PRES   REMARKS
KALISPELL      FOG       34  34 100 CALM      29.90F VSB 2
MISSOULA       FOG       30  30 100 CALM      30.02F VSB M1/4
BUTTE          CLOUDY    45  25  45 W8        30.07S
MULLAN PASS    CLOUDY    37  30  76 SW15G28   29.96F WCI  28
* ESSEX        N/A       32  32 100 N/A        N/A
* LINCOLN      N/A       40  32  73 W3G11      N/A
* LOOKOUT PASS N/A       43  34  71 SE9G21     N/A
* POLSON       N/A       38  36  93 SE2        N/A
* RONAN APT    CLOUDY    39  34  82 N/A        N/A
* SEELEY LAKE  N/A       32  31  96 S1G6       N/A
* THOMP F APT  MOCLDY    32  29  89 NE2G8      N/A
* YAAK HILL    N/A       33  31  92 NE1        N/A
$$

MTZ008-052>055-271200-
SOUTHWEST MONTANA
CITY           SKY/WX    TMP DP  RH WIND       PRES   REMARKS
BOZEMAN        CLOUDY    37  28  70 SE5       30.04F WCI  33
DILLON         MOCLDY    37  25  62 S12       30.09F WCI  29
* W YELLOWSTON CLOUDY    32  29  89 SE2G7      N/A
* ENNIS APT    CLOUDY    41  28  60 S17G23     N/A
* THREE FORKS  CLOUDY    27   5  39 N/A        N/A
* BOULDER HILL N/A       41  20  43 SW14       N/A
* MONIDA PASS  N/A       30  30 100 SE17       N/A   WCI  18
* RAYNOLDS PAS N/A       32  17  54 S12        N/A   WCI  23
* WHITEHALL    N/A       47  22  37 W13G25     N/A
* WISE RIVER   N/A       34  25  70 SE4        N/A
$$

MTZ009>010-012-014-046-048-049-054-271200-
EAST SLOPES AND CENTRAL MONTANA
CITY           SKY/WX    TMP DP  RH WIND       PRES   REMARKS
CUT BANK       FOG       27  25  92 SE14      29.81F VSB M1/4 WCI  16
GREAT FALLS    CLOUDY    39  32  76 SW14      29.87F WCI  31
HELENA         FOG       27  25  92 VRB3      29.99F VSB M1/4
MALMSTROM AFB  CLOUDY    37  34  89 S13       29.88F WCI  29
* DEARBORN     N/A       51  30  45 S9G17      N/A
* EAST GLACIER N/A       38  34  86 W34G44     N/A   WCI  25
* MONARCH      N/A       42  22  45 SW16G23    N/A
* PENDROY      N/A       31  30  96 E5         N/A   WCI  26
* ROGERS PASS  N/A       41  29  62 SE20G37    N/A
* SAINT MARY   N/A       40  36  86 SW11G24    N/A   WCI  33
* SWEET GRASS  N/A       25  25 100 S21G26     N/A   WCI  10
$$

MTZ011-013-016-021-035-040-045-047-050-051-271200-
NORTH CENTRAL MONTANA
CITY           SKY/WX    TMP DP  RH WIND       PRES   REMARKS
HAVRE          CLOUDY    28  27  96 CALM      29.92F
LEWISTOWN      CLOUDY    41  30  65 SW16      29.92F
* N BAR RANCH  CLOUDY    41  32  70 W10G17    29.93F
* CHESTER      N/A       27  25  92 SE6G12     N/A   WCI  20
* DENTON       N/A       28  27  96 S3         N/A
* GEYSER       N/A       41  27  58 SW19G26    N/A
* JUDITH GAP   N/A       25  25 100 SE4        N/A
* LOMA         N/A       30  28  92 E14        N/A   WCI  19
$$

MTZ017>020-022>027-061-062-271200-
NORTHEAST MONTANA
CITY           SKY/WX    TMP DP  RH WIND       PRES   REMARKS
GLASGOW        LGT SNOW  19  14  81 E16       30.09F WCI   4
GLENDIVE       CLOUDY    19  14  81 NE3       30.16F
JORDAN         CLOUDY    27  25  92 SE12      30.03F WCI  16
SIDNEY         CLOUDY    16  10  77 CALM      30.22F
WOLF POINT     CLOUDY    18  10  71 E12       30.17F WCI   5
* BEAVER HILL  N/A       22  18  85 SE12       N/A   WCI  10
* CIRCLE       N/A       27  24  88 E5G10      N/A   WCI  21
* LINDSAY DVD  N/A       18  17  96 E11        N/A   WCI   6
* NAVAJO       N/A        7   4  87 E3         N/A
* SACO         N/A       19  16  88 E17        N/A   WCI   4
$$

MTZ028>042-056>058-271200-
SOUTHCENTRAL AND SOUTHEAST MONTANA
CITY           SKY/WX    TMP DP  RH WIND       PRES   REMARKS
BAKER          LGT SNOW  21  16  81 SE15G23   30.13F WCI   7
BILLINGS       FOG       27  27 100 CALM      30.02F VSB 3/4
LIVINGSTON     CLOUDY    45  28  51 SW39G54   29.99R
MILES CITY     CLOUDY    27  21  78 SE12      30.08F WCI  16
* LAUREL APT   CLOUDY    32  25  75 N/A        N/A
* ALZADA       N/A       20  19  96 E7         N/A   WCI  11
* HYSHAM       N/A       28  26  92 W5         N/A   WCI  22
* REED POINT   N/A       26  25  96 E6         N/A   WCI  19
* ROSCOE HILL  N/A       47  14  26 SW17G32    N/A
$$

REGIONAL REPORTS...DAKOTAS
CITY           SKY/WX    TMP DP  RH WIND       PRES   REMARKS
WILLISTON      CLOUDY     9   3  76 NE5       30.24F
DICKINSON      CLOUDY    12   9  88 S16       30.19F WCI  -5
BEACH          CLOUDY    18  16  92 SE9       30.15F WCI   7
CROSBY         CLOUDY     9   7  91 SE6       30.26F WCI  -1
BISMARCK       CLOUDY    -8 -11  86 NE7       30.41F WCI -23
GRAND FORKS    PTCLDY   -17 -20  86 SW5       30.54S WCI -30
FARGO          PTCLDY   -13 -18  78 W6        30.56R WCI -27
BUFFALO SD     PTCLDY    19  16  88 SE14      30.10F WCI   5
RAPID CITY     CLOUDY    19  18  96 SE8       30.18F WCI   9
$$

REGIONAL REPORTS...WYOMING/IDAHO/WASHINGTON
CITY           SKY/WX    TMP DP  RH WIND       PRES   REMARKS
GILLETTE       PTCLDY    25  19  78 S18       30.04F WCI  11
SHERIDAN       FOG       19  18  96 S3        30.03F VSB 1
CODY           MOCLDY    27  27 100 CALM      30.03F
YELLOWSTONE LA CLOUDY    30  27  89 CALM      30.24F
SALMON         CLOUDY    30  28  92 NW6       30.17R VSB 3    WCI  24
MULLAN PASS    CLOUDY    37  30  76 SW15G28   29.96S WCI  28
SAND POINT     FOG       36  36 100 CALM      29.90F VSB 3
SPOKANE        CLOUDY    52  39  61 S22G30    29.88F
$$

REGIONAL REPORTS...ALBERTA
CITY           SKY/WX    TMP DP  RH WIND       PRES   REMARKS
CALGARY        LGT SNOW  25  23  92 SE8       29.80F VSB 2    WCI  16
MEDICINE HAT   LGT SNOW  28  28 100 NE8       29.90F VSB 1 1/4 WCI  20
$$

REGIONAL REPORTS...SASKATCHEWAN
CITY           SKY/WX    TMP DP  RH WIND       PRES   REMARKS
SWIFT CURRENT  LGT SNOW  21  19  92 SE12      30.03F VSB 2 1/2 WCI   9

$$



USA.gov is the U.S. government's official web portal to all federal, state and local government web resources and services.